Dickinson, ND

6:36 AM MDT on June 22, 2017 (GMT -0600)
Dickinson Municipal

Weather History for KDIK - May, 2014

Change the Weather History Date:

Sunday, May 11, 2014

  Actual Average Record
Temperature  
Mean Temperature 43 °F 52 °F  
Max Temperature 52 °F 65 °F 96 °F (1900)
Min Temperature 33 °F 38 °F 22 °F (1967)
Degree Days  
Heating Degree Days 22 14  
Month to date heating degree days 220 169  
Since 1 July heating degree days 8833 8231  
Cooling Degree Days 0 0  
Month to date cooling degree days 0 0  
Year to date cooling degree days 0 1  
Moisture  
Dew Point 35 °F    
Average Humidity 69    
Maximum Humidity 92    
Minimum Humidity 46    
Precipitation  
Precipitation T in 0.07 in 1.98 in (1985)
Month to date precipitation 0.69 0.76  
Year to date precipitation 2.55 3.55  
Sea Level Pressure  
Sea Level Pressure 30.07 in    
Wind  
Wind Speed 15 mph (North)    
Max Wind Speed 24 mph    
Max Gust Speed 32 mph    
Visibility 9 miles    
Events Rain    
T = Trace of Precipitation, MM = Missing Value Source: NWS Daily Summary

Daily Weather History Graph

Daily Weather History Graph

Search for Another Location

Airport or City:

Trip Planner

Search our weather history database for the weather conditions in past years. The results will help you decide how hot, cold, wet, or windy it might be!

Date:

Astronomy

May. 11, 2014 Rise Set
Actual Time 5:21 AM MDT 8:14 PM MDT
Civil Twilight 4:46 AM MDT 8:49 PM MDT
Nautical Twilight 4:01 AM MDT 9:35 PM MDT
Astronomical Twilight 3:07 AM MDT 10:29 PM MDT
Moon 5:01 PM MDT (5/11) 3:41 AM MDT (5/11)
Length of Visible Light 16h 03m
Length of Day
14h 52m
Waxing Gibbous, 89% of the Moon is Illuminated
May 11
Waxing Gibbous
May 14
Full
May 21
Last Quarter
May 28
New
Jun 5
First Quarter

Hourly Weather History & Observations

Time (MDT) Temp. Windchill Dew Point Humidity Pressure Visibility Wind Dir Wind Speed Gust Speed Precip Events Conditions
12:56 AM 41.0 °F 33.9 °F 37.0 °F 86% 29.91 in 10.0 mi WNW 12.7 mph - N/A   Mostly Cloudy
1:56 AM 41.0 °F 33.5 °F 37.0 °F 86% 29.92 in 10.0 mi NW 13.8 mph - N/A   Overcast
2:33 AM 41.0 °F 33.5 °F 37.0 °F 86% 29.91 in 10.0 mi NW 13.8 mph - N/A   Overcast
3:45 AM 42.1 °F 33.9 °F 37.9 °F 85% 29.91 in 10.0 mi NNW 17.3 mph 23.0 mph N/A   Overcast
3:56 AM 41.0 °F 32.8 °F 37.9 °F 89% 29.96 in 10.0 mi NNW 16.1 mph - N/A   Overcast
4:56 AM 41.0 °F 33.1 °F 37.9 °F 89% 29.99 in 10.0 mi NNW 15.0 mph - N/A   Overcast
5:56 AM 41.0 °F 32.5 °F 37.0 °F 86% 30.01 in 10.0 mi NNW 17.3 mph - N/A   Overcast
6:56 AM 39.9 °F 30.8 °F 36.0 °F 86% 30.05 in 10.0 mi NNW 18.4 mph - N/A   Overcast
7:56 AM 39.0 °F 29.6 °F 36.0 °F 89% 30.06 in 4.0 mi NNW 18.4 mph 25.3 mph N/A   Overcast
8:44 AM 39.9 °F 31.1 °F 37.9 °F 93% 30.01 in 2.5 mi NNW 17.3 mph - N/A   Overcast
8:54 AM 39.2 °F 30.8 °F 37.4 °F 93% 30.02 in 3.0 mi North 15.0 mph 25.3 mph 0.00 in Rain Light Rain
8:56 AM 39.9 °F 32.1 °F 37.0 °F 89% 30.07 in 4.0 mi North 13.8 mph 25.3 mph 0.00 in   Overcast
9:11 AM 39.9 °F 30.8 °F 37.0 °F 89% 30.04 in 6.0 mi North 18.4 mph 25.3 mph N/A   Overcast
9:43 AM 39.9 °F 30.8 °F 36.0 °F 86% 30.05 in 10.0 mi North 18.4 mph 28.8 mph N/A   Overcast
9:56 AM 39.9 °F 30.8 °F 36.0 °F 86% 30.10 in 10.0 mi North 18.4 mph 25.3 mph N/A   Overcast
10:56 AM 44.1 °F 35.7 °F 37.0 °F 76% 30.11 in 10.0 mi North 20.7 mph 28.8 mph N/A   Overcast
11:56 AM 45.0 °F 36.6 °F 36.0 °F 71% 30.13 in 10.0 mi North 21.9 mph 27.6 mph N/A   Overcast
12:56 PM 45.0 °F 36.6 °F 34.0 °F 65% 30.13 in 10.0 mi North 21.9 mph 26.5 mph N/A   Overcast
1:39 PM 45.0 °F 37.6 °F 35.1 °F 68% 30.08 in 10.0 mi North 17.3 mph 26.5 mph N/A   Overcast
1:56 PM 45.0 °F 37.1 °F 35.1 °F 68% 30.13 in 10.0 mi North 19.6 mph 26.5 mph N/A   Overcast
2:56 PM 46.9 °F - 35.1 °F 63% 30.12 in 10.0 mi North 16.1 mph 27.6 mph N/A   Overcast
3:56 PM 51.1 °F - 32.0 °F 48% 30.09 in 10.0 mi North 20.7 mph 28.8 mph N/A   Mostly Cloudy
4:56 PM 48.9 °F - 32.0 °F 52% 30.11 in 10.0 mi North 18.4 mph 26.5 mph N/A   Overcast
5:56 PM 48.9 °F - 28.9 °F 46% 30.11 in 10.0 mi North 15.0 mph 27.6 mph N/A   Mostly Cloudy
6:56 PM 48.0 °F - 32.0 °F 54% 30.14 in 10.0 mi NNE 15.0 mph - N/A   Clear
7:56 PM 45.0 °F 38.5 °F 32.0 °F 60% 30.17 in 10.0 mi NE 13.8 mph - N/A   Clear
8:56 PM 39.9 °F 33.9 °F 30.9 °F 70% 30.19 in 10.0 mi NNE 9.2 mph - N/A   Clear
9:56 PM 37.0 °F 31.6 °F 30.0 °F 76% 30.20 in 10.0 mi North 6.9 mph - N/A   Clear
10:56 PM 36.0 °F 30.3 °F 30.0 °F 79% 30.20 in 10.0 mi North 6.9 mph - N/A   Clear
11:56 PM 34.0 °F 28.8 °F 28.9 °F 82% 30.21 in 10.0 mi NNW 5.8 mph - N/A   Clear